Terug naar catalogus

ONEWEB-0131

ActiefCommunicatiePO
NORAD 47277·PAYLOAD·🇬🇧 United Kingdom

Gelanceerd Dec 18, 2020 vanaf Vostochny Cosmodrome

Loading…

Volgende Passages (komende 24 uur)

TLE

VersSource: CelesTrak SupGP

Epoch: Sep 15, 2026, 03:38 UTC

1 47277C 20100V   26258.15192546  .00001932  00000+0  53767-2 0  2588
2 47277  87.8968 332.8046 0001954  97.1898 289.3093 13.12437274    11

Volg ONEWEB-0131 in realtime met AllMySat

Download on the App Store